Location: Pardubice
(50.0330°N, 15.7830°E)
Time: 10:23:46
(UTC+02:00)

Transit 2A Rocket - Visible Passes

Search period start: 07 October 2024 00:00
Search period end: 17 October 2024 00:00
Orbit: 582 x 908 km, 66.7° (Epoch: 06 October)

Date Brightness Start Highest point End Pass type
(mag) Time Alt. Az. Time Alt. Az. Time Alt. Az.
07 Oct 7.9 00:43:46 10° NNW 00:44:53 13° NNW 00:44:53 13° NNW visible
07 Oct 5.6 18:45:10 10° SSW 18:51:00 52° ESE 18:56:50 10° NE visible
07 Oct 6.5 20:27:56 10° WSW 20:33:42 43° NW 20:39:24 10° NNE visible
07 Oct 7.6 22:13:35 10° WNW 22:17:46 19° NNW 22:21:32 11° NNE visible
07 Oct 7.8 23:59:02 10° NNW 00:01:16 15° N 00:01:16 15° N visible
08 Oct 5.9 19:43:03 10° SW 19:49:03 61° NW 19:55:02 10° NNE visible
08 Oct 7.4 21:28:04 10° WNW 21:32:45 23° NNW 21:37:21 10° NNE visible
08 Oct 7.7 23:14:01 10° NW 23:17:27 15° N 23:17:42 15° N visible
09 Oct 5.4 18:58:26 10° SW 19:04:31 88° NW 19:10:35 10° NE visible
09 Oct 7.1 20:42:38 10° W 20:47:49 28° NNW 20:52:55 10° NNE visible
09 Oct 7.7 22:28:44 10° NW 22:32:19 16° N 22:34:09 14° NNE visible
10 Oct 8.0 00:13:03 10° NNW 00:13:54 13° NNW 00:13:54 13° NNW visible
10 Oct 6.7 19:57:22 10° WSW 20:03:00 37° NW 20:08:31 10° NNE visible
10 Oct 7.6 21:43:15 10° NW 21:47:11 18° NNW 21:50:38 11° NNE visible
10 Oct 7.8 23:28:23 10° NNW 23:30:23 15° N 23:30:23 15° N visible
11 Oct 6.2 19:12:21 10° WSW 19:18:16 52° NW 19:24:08 10° NNE visible
11 Oct 7.5 20:57:40 10° WNW 21:02:08 21° NNW 21:06:29 10° NNE visible
11 Oct 7.7 22:43:29 10° NNW 22:46:52 15° N 22:46:52 15° N visible
12 Oct 7.2 20:12:10 10° W 20:17:08 25° NNW 20:22:00 10° NNE visible
12 Oct 7.6 21:58:17 10° NW 22:01:43 15° N 22:03:22 14° NNE visible
12 Oct 8.0 23:42:14 10° NNW 23:43:07 13° NNW 23:43:07 13° NNW visible
13 Oct 6.9 19:26:48 10° W 19:32:15 33° NW 19:37:36 10° NNE visible
13 Oct 7.6 21:12:50 10° NW 21:16:34 17° NNW 21:19:52 11° NNE visible
13 Oct 7.7 22:57:38 10° NNW 22:59:37 15° N 22:59:37 15° N visible
14 Oct 6.4 18:41:39 10° WSW 18:47:28 45° NW 18:53:11 10° NNE visible
14 Oct 7.5 20:27:15 10° WNW 20:31:27 19° NNW 20:35:33 10° NNE visible
14 Oct 7.6 22:12:49 10° NNW 22:16:08 16° N 22:16:08 16° N visible
14 Oct 8.1 23:55:50 10° NNW 23:55:53 10° NNW 23:55:53 10° NNW visible
15 Oct 7.3 19:41:40 10° WNW 19:46:25 23° NNW 19:51:02 10° NNE visible
15 Oct 7.5 21:27:44 10° NW 21:31:04 15° N 21:32:39 14° NNE visible
15 Oct 7.9 23:11:21 10° NNW 23:12:23 14° NNW 23:12:23 14° NNW visible
16 Oct 7.0 18:56:13 10° W 19:01:29 29° NNW 19:06:36 10° NNE visible
16 Oct 7.5 20:42:21 10° NW 20:45:54 16° N 20:49:09 11° NNE visible
16 Oct 7.6 22:26:48 10° NNW 22:28:54 16° N 22:28:54 16° N visible
